Location: Songkhla
(7.2000°N, 100.6000°E)
Time: 08:40:47
(UTC+07:00)

EGYPTSAT 2 - Visible Passes

Search period start: 06 December 2021 00:00
Search period end: 16 December 2021 00:00
Orbit: 711 x 712 km, 51.6° (Epoch: 05 December)

Date Brightness Start Highest point End Pass type
(mag) Time Alt. Az. Time Alt. Az. Time Alt. Az.
11 Dec ? 19:58:36 10° S 20:00:31 19° SSE 20:00:31 19° SSE visible
12 Dec ? 19:05:23 10° SE 19:06:50 11° SE 19:07:20 11° ESE visible
12 Dec ? 20:44:58 10° SW 20:46:24 19° SW 20:46:24 19° SW visible
13 Dec ? 19:48:58 10° SSW 19:53:17 53° SSE 19:53:17 53° SSE visible
14 Dec ? 18:53:52 10° S 18:57:59 25° SE 19:00:11 18° E visible
14 Dec ? 20:36:54 10° WSW 20:39:15 21° W 20:39:15 21° W visible
15 Dec ? 05:32:18 10° NNE 05:34:48 14° NE 05:37:17 10° E visible
15 Dec ? 19:40:06 10° SW 19:45:05 63° NW 19:46:12 49° N visible
